Location: Wiler
(46.4041°N, 7.7840°E)
Time: 11:08:30
(UTC+00:00)

Cosmos 614 Rocket - Pass Details

Date: 09 April 2020
Orbit: 734 x 763 km, 74.1° (Epoch: 25 May)

Event Time Altitude Azimuth Distance (km) Brightness Sun altitude
Rises 18:30:52 0° 185° (S) 3,212 7.1 -4.5°
Reaches altitude 10° 18:33:17 10° 180° (S) 2,290 6.3 -4.9°
Maximum altitude 18:38:18 51° 105° (ESE) 953 4.2 -5.7°
Drops below altitude 10° 18:43:20 10° 31° (NNE) 2,296 6.4 -6.5°
Sets 18:45:45 0° 27° (NNE) 3,221 7.2 -6.9°
